Wellsville, NY

7:34 PM EDT on September 17, 2019 (GMT -0400)
Wellsville Municipal-Tarantine

Weather History for KELZ - August, 2019

Change the Weather History Date:

Tuesday, August 20, 2019

  Actual Average (WUND) Record (WUND)
Temperature  
Mean Temperature 68 °F -  
Max Temperature 81 °F - - (-1)
Min Temperature 55 °F - - (-1)
Cooling Degree Days 3    
Growing Degree Days 18 (Base 50)    
Moisture  
Dew Point 61 °F    
Average Humidity 88    
Maximum Humidity 100    
Minimum Humidity 54    
Precipitation  
Precipitation 0.00 in - - ()
Sea Level Pressure  
Sea Level Pressure 30.14 in    
Wind  
Wind Speed 1 mph ()    
Max Wind Speed 8 mph    
Max Gust Speed -    
Visibility 5.3 miles    
Events Fog    
Averages and records for this station are not official NWS values.
T = Trace of Precipitation, MM = Missing Value Source: Averaged Metar Reports

Daily Weather History Graph

Daily Weather History Graph

Search for Another Location

Airport or City:

Astronomy

Aug. 20, 2019 Rise Set
Actual Time 6:24 AM EDT 8:05 PM EDT
Civil Twilight 5:54 AM EDT 8:34 PM EDT
Nautical Twilight 5:18 AM EDT 9:10 PM EDT
Astronomical Twilight 4:40 AM EDT 9:49 PM EDT
Moon 10:47 PM EDT (8/20) 11:05 AM EDT (8/20)
Length of Visible Light 14h 40m
Length of Day
13h 40m
Waning Gibbous, 78% of the Moon is Illuminated
Aug 20
Waning Gibbous
Aug 23
Last Quarter
Aug 30
New
Sep 5
First Quarter
Sep 14
Full

Hourly Weather History & Observations

Time (EDT) Temp. Heat Index Dew Point Humidity Pressure Visibility Wind Dir Wind Speed Gust Speed Precip Events Conditions
12:02 AM 61.0 °F - 61.0 °F 100% 30.17 in 0.2 mi Calm Calm - N/A Fog Fog
12:17 AM 62.1 °F - 62.1 °F 100% 30.17 in 1.0 mi Calm Calm - N/A   Mist
12:20 AM 62.1 °F - 62.1 °F 100% 30.17 in 2.0 mi Calm Calm - N/A   Partly Cloudy
12:27 AM 62.1 °F - 62.1 °F 100% 30.17 in 9.0 mi Calm Calm - N/A   Partly Cloudy
12:56 AM 61.0 °F - 61.0 °F 100% 30.14 in 7.0 mi Calm Calm - N/A   Clear
1:56 AM 61.0 °F - 60.1 °F 97% 30.14 in 10.0 mi Calm Calm - N/A   Clear
2:15 AM 60.1 °F - 60.1 °F 100% 30.17 in 1.5 mi Calm Calm - N/A   Clear
2:17 AM 60.1 °F - 60.1 °F 100% 30.17 in 0.8 mi Calm Calm - N/A   Mist
2:28 AM 59.0 °F - 59.0 °F 100% 30.17 in 1.2 mi Calm Calm - N/A   Partly Cloudy
2:31 AM 59.0 °F - 59.0 °F 100% 30.17 in 0.8 mi Calm Calm - N/A   Mist
2:44 AM 59.0 °F - 59.0 °F 100% 30.17 in 1.2 mi Calm Calm - N/A   Partly Cloudy
2:49 AM 59.0 °F - 59.0 °F 100% 30.17 in 3.0 mi Calm Calm - N/A   Clear
2:56 AM 60.1 °F - 60.1 °F 100% 30.14 in 10.0 mi Calm Calm - N/A   Clear
3:12 AM 60.1 °F - 60.1 °F 100% 30.17 in 0.2 mi Calm Calm - N/A Fog Fog
3:56 AM 57.9 °F - 57.9 °F 100% 30.15 in 0.2 mi Calm Calm - N/A Fog Fog
4:26 AM 57.9 °F - 57.9 °F 100% 30.17 in 1.0 mi Calm Calm - N/A   Mist
4:32 AM 57.9 °F - 57.9 °F 100% 30.17 in 0.8 mi Calm Calm - N/A   Mist
4:43 AM 57.9 °F - 57.9 °F 100% 30.17 in 0.2 mi Calm Calm - N/A Fog Fog
4:56 AM 57.0 °F - 57.0 °F 100% 30.15 in 0.2 mi Calm Calm - N/A Fog Fog
5:56 AM 55.9 °F - 55.9 °F 100% 30.15 in 0.2 mi Calm Calm - N/A Fog Fog
6:56 AM 55.0 °F - 55.0 °F 100% 30.17 in 0.2 mi Calm Calm - N/A Fog Fog
7:21 AM 55.9 °F - 55.9 °F 100% 30.20 in 1.2 mi Calm Calm - N/A   Scattered Clouds
7:34 AM 57.9 °F - 57.9 °F 100% 30.19 in 1.8 mi Calm Calm - N/A   Scattered Clouds
7:41 AM 59.0 °F - 59.0 °F 100% 30.20 in 3.0 mi Calm Calm - N/A   Partly Cloudy
8:56 AM 62.1 °F - 62.1 °F 100% 30.18 in 10.0 mi Calm Calm - N/A   Clear
9:56 AM 69.1 °F - 63.0 °F 81% 30.17 in 10.0 mi Variable 4.6 mph - N/A   Clear
11:56 AM 75.9 °F - 61.0 °F 60% 30.17 in 10.0 mi Variable 4.6 mph - N/A   Clear
12:56 PM 77.0 °F - 60.1 °F 56% 30.16 in 10.0 mi SSW 3.5 mph - N/A   Partly Cloudy
1:56 PM 80.1 °F 81.2 °F 62.1 °F 54% 30.13 in 10.0 mi SSW 8.1 mph - N/A   Scattered Clouds
2:56 PM 79.0 °F - 63.0 °F 58% 30.12 in 10.0 mi Variable 4.6 mph - N/A   Partly Cloudy
3:56 PM 81.0 °F 82.5 °F 64.0 °F 56% 30.10 in 10.0 mi Variable 4.6 mph - N/A   Partly Cloudy
4:56 PM 80.1 °F 81.7 °F 64.0 °F 58% 30.08 in 10.0 mi South 5.8 mph - N/A   Scattered Clouds
5:56 PM 79.0 °F - 64.0 °F 60% 30.08 in 10.0 mi South 4.6 mph - N/A   Clear
6:56 PM 78.1 °F - 64.9 °F 64% 30.06 in 10.0 mi Calm Calm - N/A   Clear
7:56 PM 75.0 °F - 64.9 °F 71% 30.05 in 10.0 mi South 4.6 mph - N/A   Clear
8:56 PM 73.9 °F - 64.9 °F 73% 30.06 in 10.0 mi South 8.1 mph - N/A   Clear
9:56 PM 72.0 °F - 66.0 °F 81% 30.04 in 10.0 mi SSE 4.6 mph - N/A   Clear
10:56 PM 70.0 °F - 66.0 °F 87% 30.04 in 10.0 mi SSE 4.6 mph - N/A   Clear
11:56 PM 70.0 °F - 66.0 °F 87% 30.02 in 10.0 mi South 5.8 mph - N/A   Clear